Weather History for Swansboro, NC

Change the Weather History Date:

Wednesday, April 17, 2013

  Actual Average (KNKT) Record (KNKT)
Temperature  
Mean Temperature 64 °F -  
Max Temperature 73 °F 71 °F 87 °F (2012)
Min Temperature 54 °F 50 °F 35 °F (2009)
Degree Days  
Heating Degree Days 2    
Growing Degree Days 14 (Base 50)    
Moisture  
Dew Point 57 °F    
Average Humidity 77    
Maximum Humidity 93    
Minimum Humidity 64    
Precipitation  
Precipitation 0.00 in - - ()
Sea Level Pressure  
Sea Level Pressure 30.23 in    
Wind  
Wind Speed 3 mph (SSE)    
Max Wind Speed 10 mph    
Max Gust Speed -    
Visibility 10 miles    
Events      
Averages and records for this station are not official NWS values.
T = Trace of Precipitation, MM = Missing Value Source: NWS Daily Summary

Daily Weather History Graph

Daily Weather History Graph

Search for Another Location

Airport:

Trip Planner

Search our weather history database for the weather conditions in past years. The results will help you decide how hot, cold, wet, or windy it might be!

Date:

Astronomy

Apr. 17, 2013 Rise Set
Actual Time 6:33 AM EDT 7:42 PM EDT
Civil Twilight 6:07 AM EDT 8:08 PM EDT
Nautical Twilight 5:36 AM EDT 8:39 PM EDT
Astronomical Twilight 5:04 AM EDT 9:11 PM EDT
Moon 11:50 AM EDT (4/17) 1:13 AM EDT (4/17)
Length of Visible Light 14h 00m
Length of Day
13h 08m
Waxing Crescent, 42% of the Moon is Illuminated
Apr 17
Waxing Crescent
Apr 18
First Quarter
Apr 25
Full
May 2
Last Quarter
May 9
New

Hourly Weather History & Observations

Time (EDT) Temp. Dew Point Humidity Pressure Visibility Wind Dir Wind Speed Gust Speed Precip Events Conditions
12:57 AM 64.0 °F 57.9 °F 80% 30.26 in 10.0 mi ESE 4.6 mph - N/A   Clear
1:57 AM 61.0 °F 55.9 °F 83% 30.25 in 10.0 mi Calm Calm - N/A   Clear
2:57 AM 57.0 °F 55.0 °F 93% 30.24 in 9.0 mi Calm Calm - N/A   Clear
3:57 AM 55.9 °F 54.0 °F 93% 30.24 in 9.0 mi Calm Calm - N/A   Clear
4:57 AM 55.0 °F 52.0 °F 89% 30.22 in 10.0 mi Calm Calm - N/A   Clear
5:57 AM 54.0 °F 52.0 °F 93% 30.22 in 10.0 mi Calm Calm - N/A   Clear
6:57 AM 54.0 °F 52.0 °F 93% 30.25 in 10.0 mi Calm Calm - N/A   Clear
7:57 AM 61.0 °F 59.0 °F 93% 30.27 in 8.0 mi Calm Calm - N/A   Partly Cloudy
8:57 AM 69.1 °F 60.1 °F 73% 30.27 in 10.0 mi Calm Calm - N/A   Partly Cloudy
10:57 AM 72.0 °F 59.0 °F 64% 30.25 in 10.0 mi SSE 5.8 mph - N/A   Mostly Cloudy
11:57 AM 72.0 °F 59.0 °F 64% 30.25 in 10.0 mi SSE 9.2 mph - N/A   Mostly Cloudy
12:57 PM 73.0 °F 60.1 °F 64% 30.23 in 10.0 mi South 8.1 mph - N/A   Mostly Cloudy
1:57 PM 72.0 °F 60.1 °F 66% 30.22 in 10.0 mi SSE 10.4 mph - N/A   Scattered Clouds
2:57 PM 72.0 °F 59.0 °F 64% 30.20 in 10.0 mi SSE 9.2 mph - N/A   Scattered Clouds
3:57 PM 72.0 °F 60.1 °F 66% 30.19 in 10.0 mi South 9.2 mph - N/A   Scattered Clouds
4:57 PM 71.1 °F 60.1 °F 68% 30.19 in 10.0 mi SSE 8.1 mph - N/A   Clear
5:57 PM 70.0 °F 59.0 °F 68% 30.19 in 10.0 mi SE 8.1 mph - N/A   Clear
6:57 PM 68.0 °F 59.0 °F 73% 30.19 in 10.0 mi SSE 5.8 mph - N/A   Clear
7:57 PM 66.0 °F 57.9 °F 75% 30.20 in 10.0 mi SSE 3.5 mph - N/A   Clear